GFSSGP_925_rhum_000.txt.gz
RH
77 80 68 64 52 32 58 54 33 40 44 42 46 44 56 66 51 62 62 71 71 73 79 79 76 76 76 78 75 72 64 62 62 62 64 59 67 72 79 90 90 80 81 84 95 85 83 89 78
64 65 58 40 27 34 38 33 36 37 39 38 43 48 44 65 58 67 62 69 68 61 63 70 76 75 73 76 76 74 70 78 63 62 61 62 67 66 82 90 81 84 84 96 94 75 82 93 91
51 52 38 23 18 30 36 34 39 40 36 37 44 40 42 57 52 48 60 65 62 68 65 81 76 73 72 74 78 85 80 71 70 68 64 67 66 78 80 84 91 88 92 84 81 72 75 89 96
42 35 31 21 19 24 31 34 38 40 38 36 37 51 46 44 47 50 62 62 60 70 73 77 72 73 74 75 78 78 82 77 78 73 76 72 69 76 75 83 83 82 74 72 72 78 94 93 95
35 26 19 18 22 22 25 32 34 35 37 38 34 46 54 52 54 58 62 61 60 63 68 73 80 78 75 76 80 88 86 82 69 70 67 73 77 73 70 72 91 92 88 80 80 88 95 95 82
25 21 17 19 23 24 25 30 33 36 39 41 37 48 51 55 56 59 61 64 61 61 67 75 83 79 81 80 89 85 81 75 72 76 81 75 71 72 74 72 86 93 92 89 78 76 81 79 75
22 18 20 19 24 25 26 26 30 35 41 39 34 46 51 50 56 60 64 61 59 61 69 70 74 85 91 90 92 91 85 74 73 70 67 60 66 66 73 71 68 89 77 77 76 68 68 70 65
20 17 19 20 22 22 23 26 27 29 39 31 30 46 56 47 57 58 58 60 62 61 66 76 79 81 76 81 93 95 90 79 71 67 63 66 65 62 55 53 80 66 66 74 70 69 68 66 67
21 20 18 18 21 23 23 27 29 28 38 37 34 32 37 47 53 55 61 65 66 63 65 68 73 79 81 72 80 87 85 87 74 62 62 58 61 66 66 70 62 69 65 70 69 67 66 67 70
20 19 17 14 17 21 24 24 31 36 37 37 41 35 41 48 52 52 55 60 59 62 64 60 64 74 74 66 77 76 70 65 64 64 69 65 68 71 69 70 65 65 64 67 67 66 67 65 57
14 19 16 16 16 17 23 26 27 28 36 31 40 42 42 46 50 49 50 52 53 57 59 67 64 74 71 67 70 68 65 62 67 74 74 66 69 67 66 64 64 64 66 62 65 65 60 72 67
14 12 13 14 17 19 22 22 27 27 24 24 30 37 42 44 44 45 48 49 50 55 58 62 66 72 69 75 71 68 62 63 62 64 77 73 69 69 73 65 70 73 64 69 70 63 75 74 71
11 10 10 11 16 17 20 24 25 28 27 25 31 39 41 41 43 44 45 48 51 56 58 60 65 75 76 80 66 65 66 64 59 62 70 67 63 74 73 75 78 76 69 65 69 71 72 74 67
8 9 10 10 15 18 23 25 27 26 24 31 36 40 39 40 42 44 46 47 51 55 58 60 66 75 78 77 76 71 69 63 63 59 62 75 68 72 71 69 70 71 69 67 71 74 76 72 66
9 12 18 16 17 22 21 32 31 26 29 36 38 39 39 39 42 45 47 49 53 55 57 60 67 73 80 82 80 76 66 66 61 62 70 74 75 78 77 69 71 68 75 85 75 76 70 63 61
11 12 16 18 21 23 23 22 27 27 32 38 38 39 40 40 40 45 47 49 51 55 60 64 62 65 74 74 75 72 65 64 62 60 64 78 78 81 77 72 69 72 74 70 68 66 63 57 57
12 15 14 23 21 27 26 21 24 27 30 33 38 37 39 41 42 45 47 49 50 57 62 67 68 66 69 75 74 75 69 74 76 73 75 69 76 75 75 71 70 78 78 84 70 65 65 56 52
15 15 14 16 24 25 27 21 27 28 28 29 36 36 38 38 40 43 47 49 52 56 64 69 69 70 74 76 83 72 74 73 68 68 80 75 82 77 81 76 75 79 83 69 68 74 60 65 57
10 14 14 13 18 24 22 22 22 32 30 29 32 36 36 34 34 40 47 50 52 56 64 70 70 72 77 80 68 65 60 62 66 62 81 79 76 78 80 72 77 80 76 70 72 65 59 52 56
11 13 14 13 19 21 19 22 21 24 32 28 30 33 36 34 34 40 46 47 49 55 62 68 72 74 80 69 65 60 61 56 63 62 75 76 77 81 80 78 76 81 61 75 70 68 57 53 57
12 13 14 16 21 21 19 24 21 19 26 29 27 27 31 34 34 38 41 45 47 51 61 66 72 75 78 68 70 74 74 73 69 68 76 81 85 86 87 86 74 79 68 48 67 66 65 49 65
13 10 12 14 20 25 20 23 17 16 25 29 30 28 27 32 34 34 38 42 44 48 55 64 72 76 77 77 66 68 62 54 50 54 53 65 80 80 83 83 83 72 55 62 64 64 65 69 50
11 9 11 13 17 20 22 24 17 18 20 23 27 28 26 25 30 34 36 39 43 46 51 58 70 75 76 75 75 70 72 54 53 54 66 76 75 82 74 82 78 69 62 70 71 69 72 61 57
8 10 12 13 14 22 19 20 16 15 18 15 17 23 26 24 25 30 33 36 40 43 48 53 63 74 76 77 79 78 65 63 51 60 60 58 58 69 78 84 78 66 59 70 69 70 72 69 66
9 13 20 21 20 21 16 19 17 11 10 11 10 15 23 23 24 28 32 35 39 42 45 51 59 70 74 76 76 79 77 73 69 66 62 52 53 56 67 87 80 64 70 68 66 70 65 68 63
10 11 16 24 19 17 15 20 15 11 10 9 8 12 18 22 21 24 29 32 38 41 44 49 54 66 70 72 76 80 79 74 70 66 56 56 52 50 56 85 74 67 66 68 64 60 60 58 61
10 12 10 13 12 13 11 15 11 10 12 11 12 14 16 21 21 22 26 30 34 39 44 50 57 63 65 67 75 80 81 78 62 61 69 63 62 51 66 75 71 62 67 64 64 58 60 58 60
7 8 13 12 23 21 15 14 15 13 10 8 11 15 16 19 21 20 23 27 31 36 40 48 53 59 62 62 69 72 74 78 75 70 72 65 65 71 67 70 62 63 66 65 68 56 57 60 52
8 9 11 11 13 17 18 14 10 11 11 10 8 13 13 17 22 21 20 23 29 31 35 42 50 56 60 60 63 65 66 69 76 74 90 85 84 77 74 72 61 62 64 66 67 63 54 56 57
6 9 11 14 21 14 14 12 7 8 8 8 7 7 7 14 19 22 21 22 26 30 31 35 41 49 54 55 64 64 64 66 72 82 89 91 85 76 73 73 74 64 62 63 67 64 51 54 55

GFSSGP_925_rhum_003.txt.gz
RH
71 79 75 75 91 67 52 37 34 37 40 33 32 62 57 56 66 74 76 70 63 64 74 80 74 73 69 66 67 66 63 70 70 72 75 82 91 90 83 92 95 94 88 89 89 93 93 93 92
60 60 59 43 39 78 70 34 40 35 33 30 31 38 43 76 47 55 60 59 58 54 58 68 74 75 74 71 70 67 68 72 67 67 73 68 92 94 92 93 94 93 88 90 92 92 93 95 93
50 46 54 45 28 40 42 36 29 29 26 29 33 34 47 73 44 49 57 55 52 59 64 81 75 76 78 90 77 68 69 68 66 70 71 76 92 94 92 91 92 93 91 91 90 92 94 94 96
41 32 32 15 16 22 33 27 27 28 26 27 32 43 38 36 40 45 50 52 57 65 67 77 78 74 89 93 85 70 74 77 71 70 73 91 93 92 89 92 90 90 91 91 82 92 94 95 96
33 27 29 14 16 18 23 24 23 29 27 27 31 44 44 38 42 46 47 52 56 62 63 76 83 83 90 87 94 93 77 74 72 70 78 89 91 91 92 92 87 86 73 72 79 91 95 94 96
33 18 22 15 16 16 20 21 22 24 26 29 35 41 45 42 44 46 48 56 57 61 59 75 84 87 89 94 95 72 68 67 69 73 73 77 82 89 90 87 86 87 88 81 90 83 79 89 93
28 30 20 14 17 16 18 18 20 23 28 28 31 42 43 40 43 45 56 57 56 58 62 68 76 85 94 94 91 88 85 82 82 83 81 66 68 75 61 56 65 80 85 85 91 71 69 70 66
17 17 14 20 15 15 14 17 16 21 26 22 25 41 49 41 42 51 54 57 55 54 62 60 66 71 74 82 94 95 85 81 86 92 68 55 56 50 47 54 77 69 68 79 73 64 61 62 62
12 22 16 16 27 15 14 16 17 18 24 24 24 29 35 41 41 46 57 58 59 58 62 60 60 66 70 74 89 91 86 84 87 69 62 55 67 67 68 74 64 65 72 66 64 60 56 68 69
15 42 18 11 18 15 14 14 18 21 25 26 28 28 38 42 39 40 52 61 55 55 52 51 60 71 66 56 79 72 66 64 63 61 69 66 58 64 62 64 59 60 58 63 61 60 61 63 66
12 29 18 12 12 13 14 15 15 19 25 25 30 32 36 40 39 39 46 46 44 44 45 60 64 71 70 67 62 59 58 56 57 62 64 57 59 61 64 70 67 69 61 77 72 65 63 62 60
12 14 13 12 13 14 14 14 16 16 17 19 24 27 33 37 37 37 39 39 40 44 46 54 65 72 67 62 59 55 51 50 51 57 69 70 63 59 60 65 61 67 64 60 64 58 66 65 67
10 10 10 10 12 12 14 15 15 16 16 18 23 27 32 34 36 37 37 37 39 43 46 49 55 64 64 74 55 52 52 51 49 53 60 62 55 65 68 67 62 64 59 60 58 60 63 64 62
8 9 9 9 10 13 16 16 17 15 16 20 26 29 29 31 33 36 38 38 39 42 45 48 56 69 76 75 69 60 56 55 50 50 52 70 65 69 66 67 64 63 61 60 58 70 70 65 57
8 10 10 11 10 13 13 18 17 15 19 22 26 29 28 29 31 34 37 39 42 44 47 50 55 63 72 71 72 66 57 53 53 50 56 62 66 66 75 64 64 57 67 76 72 71 64 55 43
9 9 12 11 10 11 14 20 18 16 18 21 25 28 29 29 28 33 36 38 41 44 49 53 51 55 66 80 78 68 57 59 53 52 53 64 69 77 74 64 61 59 64 64 67 68 62 47 44
10 12 12 14 11 14 16 21 18 18 18 20 23 26 28 29 29 32 34 38 39 46 50 55 55 53 60 77 68 66 61 62 62 59 60 67 69 72 73 62 57 68 69 68 66 64 54 45 45
14 12 12 17 12 15 17 21 18 18 19 17 20 22 27 28 29 31 35 37 40 44 50 58 59 59 62 64 72 66 60 68 64 62 63 66 73 75 75 63 70 73 67 63 72 69 54 55 54
10 11 11 10 10 14 17 16 18 19 20 19 18 20 24 26 26 29 34 36 39 43 51 57 63 66 69 71 75 69 67 58 55 52 66 77 75 74 80 73 69 73 68 69 61 58 50 48 48
9 10 12 10 11 12 15 17 14 20 21 19 19 19 21 23 24 29 33 36 38 44 49 57 64 68 74 72 76 60 55 52 47 50 55 66 66 66 74 74 60 63 60 67 66 65 57 45 52
10 10 11 11 16 15 14 18 15 15 19 20 18 18 18 20 22 28 31 35 38 42 50 58 66 69 72 67 66 65 63 60 56 50 61 68 73 70 78 79 78 78 68 40 64 61 60 48 52
11 9 10 10 17 22 13 21 17 14 16 21 20 19 18 19 20 23 30 35 36 40 48 54 66 69 72 73 63 61 59 52 44 44 44 54 72 71 73 80 69 75 52 60 56 58 66 62 44
9 8 10 10 13 27 14 16 17 13 15 17 20 20 18 18 20 22 27 32 35 37 44 52 63 70 68 75 68 60 61 45 44 40 49 55 72 67 63 66 75 74 56 62 65 63 70 62 53
7 8 10 10 12 17 15 17 18 18 14 13 14 18 19 18 18 22 24 29 33 35 40 47 62 71 73 73 77 67 61 54 42 43 52 54 54 63 64 62 75 72 53 61 64 67 68 67 65
7 10 14 16 16 16 12 17 29 13 10 11 11 11 16 19 18 21 26 28 32 36 39 45 56 72 74 72 72 74 70 65 58 56 55 50 46 48 67 65 83 70 65 61 64 68 65 65 62
8 9 13 22 18 15 12 16 13 10 9 8 8 8 10 17 18 18 23 28 33 35 41 44 52 67 73 70 70 71 72 64 58 58 51 52 48 48 55 70 72 72 60 64 65 60 60 56 60
7 9 8 11 11 13 11 11 9 10 10 9 8 8 8 14 17 19 20 25 30 33 39 44 50 61 67 63 72 74 74 70 54 53 58 56 53 49 54 64 69 68 60 64 63 60 57 59 58
5 6 10 10 21 19 12 12 12 12 11 9 9 8 8 10 16 17 18 22 27 31 36 43 49 58 61 60 67 70 72 75 68 60 60 55 56 58 57 68 69 65 58 65 65 57 57 58 56
6 6 8 9 11 15 16 13 8 10 11 10 9 8 8 10 15 17 17 19 24 27 31 38 44 52 59 59 57 60 65 68 72 66 63 64 61 72 64 72 65 59 61 66 66 62 57 60 61
5 6 6 12 18 12 12 11 7 7 8 8 8 7 7 10 13 16 16 17 20 25 26 31 36 42 51 55 58 61 63 64 67 70 67 74 73 75 70 71 70 58 61 63 66 65 56 55 56

GFSSGP_925_rhum_006.txt.gz
RH
59 81 66 80 86 64 64 48 39 76 40 39 42 60 58 56 65 84 74 72 71 75 87 89 76 74 72 69 75 75 76 72 65 71 84 84 85 87 88 85 85 90 94 95 95 95 95 94 93
67 66 68 92 95 83 63 43 56 43 32 43 46 49 55 60 53 58 68 64 62 67 71 80 74 68 70 67 65 67 73 75 70 76 79 85 87 82 82 86 79 90 94 92 94 94 95 95 95
54 58 69 74 53 74 76 79 36 32 38 42 48 41 52 58 53 56 60 57 55 60 71 80 73 69 67 65 63 68 78 77 74 74 81 89 85 76 77 78 86 92 90 93 94 93 93 94 96
62 51 52 58 37 46 41 43 23 27 32 31 36 54 44 43 47 50 52 54 55 62 73 79 74 75 74 73 70 71 73 76 72 78 88 88 82 82 91 91 92 91 88 91 93 93 93 95 93
53 48 60 38 20 29 32 23 28 29 33 34 35 45 44 39 44 47 54 55 64 66 75 83 77 86 87 85 71 73 76 77 76 79 90 86 84 86 89 86 86 76 86 84 91 90 93 92 81
92 49 55 16 16 17 19 21 27 27 34 35 38 48 53 39 41 49 51 55 57 58 70 85 84 87 86 86 83 80 86 89 79 74 73 74 84 85 86 83 79 74 88 89 90 78 74 73 65
83 59 27 22 15 17 17 15 22 22 27 33 35 56 51 38 45 49 52 54 55 61 70 84 88 94 90 85 86 88 86 79 74 66 61 59 72 83 80 78 62 71 69 74 71 63 59 63 58
57 40 26 20 15 14 15 15 16 19 32 24 34 45 54 44 50 50 51 54 57 55 64 72 81 86 88 92 91 74 68 75 74 63 53 54 71 78 61 62 66 58 59 64 59 53 54 65 61
15 20 24 21 16 13 13 14 16 19 22 30 30 32 36 41 48 50 54 55 58 57 62 64 69 75 77 80 89 84 88 80 75 59 49 56 70 67 74 75 70 54 57 57 51 48 61 68 67
16 25 25 22 16 13 13 14 16 19 22 23 28 29 32 39 42 49 53 50 57 52 61 62 62 70 70 67 75 84 78 73 72 70 58 61 73 67 67 71 67 55 59 61 58 60 67 70 69
16 27 19 16 16 14 13 13 13 19 22 23 36 35 32 34 43 48 49 47 50 52 48 55 59 62 63 75 65 69 65 63 62 61 66 61 61 62 62 74 56 76 71 66 72 76 68 61 61
13 15 16 14 11 15 12 12 14 16 18 20 26 33 33 32 33 38 42 43 42 45 56 67 67 63 67 63 62 62 60 57 58 60 59 62 66 62 73 85 65 69 62 74 70 66 62 64 62
9 13 12 9 10 12 11 14 14 14 16 18 22 31 34 32 30 35 36 37 37 38 54 64 65 60 70 63 56 52 54 48 52 57 61 60 61 62 63 68 63 62 63 64 60 58 64 56 58
8 8 9 8 9 10 16 14 13 13 14 18 23 29 32 32 31 31 32 32 36 38 41 51 67 62 70 61 62 58 47 53 47 50 58 59 64 67 62 69 62 62 64 59 62 67 65 66 62
7 9 8 9 9 11 12 16 16 14 13 19 23 26 28 30 31 32 31 32 35 38 41 50 59 66 62 72 70 68 58 48 54 48 59 63 61 66 72 72 67 67 64 67 68 66 67 64 56
8 8 11 9 9 10 12 19 13 14 15 18 23 24 26 28 28 32 34 33 35 39 43 48 47 64 69 70 72 65 60 57 56 55 52 59 62 67 73 69 67 66 64 65 67 68 64 58 46
9 12 11 10 10 11 13 24 18 14 16 17 20 24 24 28 27 31 32 35 36 40 48 50 50 53 67 66 73 75 68 60 58 57 60 64 65 72 67 66 69 69 68 66 69 68 63 50 49
11 11 10 11 12 10 14 42 36 23 15 17 18 21 25 25 27 29 30 34 36 42 49 52 52 53 60 70 72 74 64 60 60 67 66 69 64 66 73 67 69 65 67 67 64 66 59 53 52
8 10 10 10 12 12 17 54 60 33 19 16 19 19 22 24 25 26 30 32 35 43 50 55 57 56 65 72 76 70 70 65 58 54 54 65 72 71 75 72 70 69 68 68 62 58 56 52 48
10 10 11 9 12 13 13 35 37 28 19 17 16 18 18 19 22 27 30 31 34 40 49 58 61 63 62 68 69 69 67 61 60 59 60 60 66 69 70 68 68 70 65 66 68 66 61 51 48
10 10 11 10 11 11 12 15 19 19 16 16 15 15 16 19 20 28 30 32 34 40 49 56 65 68 72 67 70 68 68 66 59 56 58 69 66 69 70 77 76 70 60 60 66 64 60 56 58
11 8 9 9 14 19 14 22 24 19 20 19 16 16 16 18 20 23 30 33 34 38 47 56 66 70 77 66 74 71 66 62 53 54 53 60 63 70 67 70 75 75 58 57 57 59 58 61 59
9 8 8 9 11 18 19 22 19 20 21 21 18 17 16 16 17 20 28 31 33 37 48 55 67 72 76 76 71 70 63 57 47 42 47 58 66 69 73 72 72 71 56 55 61 64 53 68 54
6 8 8 8 10 17 15 20 19 18 21 17 17 17 17 16 17 20 24 29 34 36 45 53 66 75 74 79 69 68 63 58 54 50 54 64 71 66 62 64 67 70 56 66 66 64 67 64 67
6 8 14 15 15 16 12 20 22 17 16 14 24 21 17 17 18 20 24 30 35 36 41 52 62 75 78 77 81 66 66 55 58 53 56 57 57 67 64 60 72 72 61 61 63 69 67 67 63
6 7 13 22 18 15 12 15 15 15 14 16 19 26 15 17 16 19 24 28 34 37 40 47 61 72 77 76 83 79 70 66 65 59 50 55 49 48 61 60 68 73 68 61 65 66 64 63 63
6 8 7 11 10 13 11 10 8 9 14 17 13 10 10 16 17 18 22 26 32 36 39 45 58 72 77 77 80 84 78 72 68 58 56 57 50 50 61 65 72 74 68 65 65 63 60 62 63
5 5 8 9 19 21 13 15 14 13 14 16 16 14 9 10 17 18 19 26 29 34 38 44 50 67 76 76 79 80 82 75 65 55 55 54 57 48 54 66 66 76 67 65 66 62 64 58 56
6 6 6 7 10 15 19 15 10 16 15 15 13 10 9 9 16 16 19 21 28 33 37 42 48 61 71 74 74 75 77 78 68 70 64 59 54 54 52 53 69 72 72 66 68 61 58 57 58
6 7 7 10 17 11 13 13 7 12 11 10 10 10 9 11 12 15 18 20 25 30 34 40 46 53 64 69 70 73 76 78 78 72 70 63 66 62 53 64 72 75 68 67 69 62 61 66 64

GFSSGP_925_rhum_009.txt.gz
RH
59 67 79 80 95 86 82 62 56 51 55 45 48 60 70 66 66 90 75 86 82 86 87 80 79 90 84 79 78 76 66 66 72 78 78 74 67 72 80 85 87 88 91 95 95 96 95 94 93
63 83 79 88 90 90 89 62 58 50 49 47 49 51 62 77 65 78 87 81 81 79 86 78 78 73 75 83 78 71 68 75 78 81 79 68 70 75 77 82 90 88 91 95 96 96 94 94 87
76 74 91 96 83 79 86 68 49 57 52 46 49 46 59 78 65 74 72 72 70 80 79 75 73 65 68 72 73 72 67 70 70 77 77 78 73 73 70 75 79 78 89 96 96 95 96 94 84
61 90 94 85 57 60 58 55 68 52 45 42 47 64 56 55 61 65 67 64 71 76 74 78 66 67 66 66 70 69 67 71 73 74 79 78 71 74 63 73 81 89 94 96 94 93 84 82 77
73 88 90 76 46 45 43 52 60 43 43 47 50 65 64 53 57 62 58 66 74 77 73 74 70 66 65 66 66 65 66 70 77 76 79 83 75 72 65 75 79 82 88 91 85 71 66 53 61
88 82 72 42 35 34 36 32 38 40 42 45 52 57 59 52 55 55 57 65 73 75 76 78 79 78 70 70 68 69 69 72 75 75 77 78 68 64 62 69 78 86 89 80 67 62 60 51 53
73 70 47 38 32 26 38 32 41 41 47 47 47 64 55 52 56 55 59 63 67 78 81 85 90 93 86 75 70 76 76 76 74 72 70 64 57 56 53 63 58 57 62 66 59 57 58 55 54
55 54 40 39 33 22 24 23 41 35 44 40 43 58 59 53 54 55 59 60 72 76 80 83 87 92 85 86 82 79 76 78 74 71 60 52 55 53 58 65 68 58 53 53 58 58 62 64 58
35 54 63 44 27 19 18 30 29 28 44 43 46 44 50 50 54 55 57 61 68 74 79 81 86 84 84 77 88 87 82 76 70 63 53 49 65 72 74 76 80 72 57 51 54 60 65 69 68
22 40 34 25 21 17 16 28 32 34 44 51 46 45 50 50 54 54 60 64 64 72 80 76 76 79 79 77 85 69 62 58 53 50 47 64 60 72 79 78 69 62 56 62 63 67 66 66 59
17 27 23 19 18 14 17 18 20 32 43 44 51 52 50 52 54 55 58 60 63 64 70 75 77 73 77 78 60 61 54 61 65 63 65 64 70 71 58 58 58 68 60 66 62 66 66 65 55
18 16 17 19 18 16 16 16 21 22 34 34 40 48 48 53 55 54 53 58 59 64 62 67 67 71 76 73 58 57 64 63 64 64 64 68 71 66 52 45 60 66 66 63 63 65 67 54 53
16 15 13 14 17 15 14 16 21 22 32 33 34 38 47 50 50 52 50 51 54 56 62 64 58 65 70 65 57 63 64 63 62 63 57 56 63 68 61 62 66 73 68 61 66 68 54 61 57
12 12 14 13 13 17 17 16 19 24 32 35 36 38 39 51 49 48 47 47 49 62 66 60 60 60 68 62 64 64 62 60 60 62 60 60 62 64 65 68 63 64 66 62 62 58 60 55 56
10 12 10 10 10 13 19 34 19 23 25 37 40 39 38 38 41 43 44 44 51 57 66 63 62 56 58 63 67 63 60 50 48 56 60 62 58 61 68 68 65 66 66 66 63 64 61 54 55
12 11 13 11 11 11 19 40 25 19 27 35 37 38 38 40 37 38 38 41 41 53 65 65 67 58 63 61 66 62 62 60 49 56 63 62 63 64 71 64 70 64 64 67 66 66 66 57 50
12 14 14 12 10 14 17 31 18 16 26 30 34 34 37 39 38 36 33 36 40 42 58 67 66 61 63 62 60 63 59 57 61 56 60 65 64 64 63 67 69 67 70 69 68 67 61 54 44
16 14 12 14 13 15 26 29 25 20 20 28 30 30 33 36 38 37 34 34 40 41 50 56 60 65 64 57 62 68 64 60 67 58 61 59 60 62 63 66 74 69 70 68 64 64 58 50 55
11 12 12 11 13 17 32 36 31 22 26 29 30 30 32 33 32 37 37 36 39 43 46 50 50 68 68 68 68 72 71 73 63 54 58 63 62 67 71 66 71 73 67 63 64 60 53 51 54
10 12 13 11 13 17 34 33 25 20 20 22 25 30 30 31 31 36 35 38 40 45 50 49 49 55 71 68 69 68 74 69 60 54 52 62 66 68 64 66 66 67 71 70 67 59 56 56 50
11 13 13 13 12 15 32 43 38 26 22 25 23 23 27 29 31 34 35 37 40 50 54 54 50 50 67 69 71 70 68 65 66 65 61 62 65 61 66 67 71 70 67 70 67 55 52 55 58
15 10 11 11 12 20 20 36 46 33 36 37 31 22 23 27 28 31 35 36 39 51 52 57 56 53 58 68 72 73 71 71 67 66 62 60 66 66 70 71 74 74 61 62 60 63 59 61 57
11 10 11 11 13 24 21 26 32 34 41 44 32 20 20 22 25 32 35 35 37 44 54 60 61 60 64 64 68 69 69 66 65 64 61 59 72 71 72 73 76 77 62 52 59 58 50 62 57
6 10 11 12 13 19 23 23 30 31 40 43 25 21 19 20 22 30 31 35 36 46 54 64 70 69 72 68 69 72 70 67 63 54 58 63 69 63 64 69 72 74 64 52 61 61 48 67 68
6 10 16 19 20 23 16 24 31 19 20 21 22 20 20 19 21 24 33 37 37 45 53 68 73 80 80 76 69 75 72 64 58 52 63 70 66 70 71 74 73 70 61 58 60 60 64 64 64
7 8 13 26 24 20 16 18 18 16 18 18 22 19 20 21 20 23 32 34 38 41 55 63 76 78 82 82 78 70 73 66 57 61 69 63 62 66 65 66 64 65 63 61 60 66 61 67 58
8 9 7 12 17 23 16 14 12 17 17 17 19 21 20 18 21 22 27 32 38 41 55 59 77 80 83 85 84 79 71 67 67 60 58 62 60 65 64 61 62 70 70 56 63 64 61 70 61
6 7 10 8 15 21 16 19 20 18 20 22 23 22 20 20 21 21 25 32 38 40 49 57 70 79 83 82 86 82 76 69 70 65 53 64 55 50 55 62 62 72 74 65 63 64 59 63 65
8 8 8 10 10 16 22 18 14 18 24 24 20 18 18 20 19 22 24 28 37 40 46 54 67 77 82 85 85 84 83 78 75 69 59 59 60 54 54 58 65 71 73 67 64 65 61 65 60
7 10 8 15 15 18 14 14 12 9 17 19 18 19 15 21 19 20 23 28 37 40 42 51 68 75 78 82 84 86 85 87 84 73 68 60 59 56 56 57 62 68 73 69 63 67 64 60 65

GFSSGP_925_rhum_015.txt.gz
RH
98 95 90 87 94 92 91 72 70 57 58 59 53 58 82 87 79 87 84 86 79 80 79 77 75 91 90 84 90 67 63 56 57 65 77 94 92 94 96 90 94 93 92 95 96 92 86 87 92
97 88 79 86 91 94 82 70 63 62 62 59 59 64 75 90 79 95 96 82 74 79 79 78 78 87 88 89 80 66 73 60 64 65 92 95 93 94 93 92 91 92 96 97 90 96 93 88 77
97 86 87 95 93 89 86 68 63 58 53 51 66 62 71 90 84 89 82 80 77 80 78 84 82 84 88 94 83 85 86 68 63 77 89 94 89 91 86 96 93 94 90 93 87 85 84 70 67
75 84 90 93 74 65 73 72 58 57 49 57 64 80 71 71 78 84 82 78 77 80 81 90 93 93 92 94 93 86 78 73 69 83 76 73 76 96 96 94 93 86 87 87 88 76 80 71 66
70 86 93 92 61 59 61 51 62 59 54 60 60 82 87 74 72 80 86 79 76 78 81 88 86 85 92 94 94 80 80 74 67 72 70 68 84 93 79 81 83 80 79 78 75 74 72 72 77
87 87 76 69 49 54 56 53 59 55 56 66 72 74 82 78 82 87 84 76 72 77 87 89 88 81 90 94 91 80 75 61 64 69 68 73 83 78 79 80 80 79 76 70 69 69 67 66 75
76 84 65 48 52 60 56 56 69 59 62 66 57 84 83 79 80 81 79 75 74 74 86 84 91 93 94 93 92 81 68 60 64 69 66 69 77 67 71 72 71 68 64 60 61 65 66 68 71
68 72 55 48 56 58 52 63 51 57 59 50 56 85 91 75 74 79 80 82 78 77 76 82 87 93 92 92 93 89 70 63 67 62 60 69 71 70 73 75 79 77 60 53 59 66 71 70 69
65 72 62 47 46 47 48 58 48 45 58 51 52 61 61 71 75 84 92 95 96 90 76 77 84 88 80 78 85 93 79 69 71 64 57 61 70 70 76 76 77 72 63 57 63 66 65 60 66
68 68 51 35 33 48 47 49 52 57 59 60 61 57 64 66 78 84 90 97 99 98 90 82 81 83 78 74 80 87 84 78 69 59 53 60 69 73 72 72 72 62 63 61 64 65 60 61 64
59 64 39 32 26 38 46 49 46 60 64 63 70 67 61 68 73 80 87 93 93 90 91 89 88 86 80 70 76 82 75 70 61 51 50 63 70 69 68 62 63 59 59 63 63 64 60 56 54
36 40 39 29 19 39 46 44 52 52 51 51 55 59 60 65 70 75 83 89 91 95 88 84 85 84 76 69 70 66 65 63 53 44 50 61 73 69 64 58 59 62 62 59 61 58 55 58 50
34 28 20 18 18 34 39 48 49 52 47 49 53 57 62 65 67 71 77 82 86 91 88 80 81 78 74 70 58 60 57 57 47 51 62 66 72 69 66 64 63 62 62 60 62 63 66 68 61
17 18 17 16 14 31 43 45 47 48 48 55 57 61 62 62 64 68 72 78 83 85 85 79 78 70 70 64 53 55 56 52 54 63 67 72 74 70 63 61 62 64 64 64 64 71 68 61 56
15 17 14 14 13 29 34 46 52 45 53 60 61 61 61 60 60 66 68 72 76 81 80 78 70 68 66 56 51 54 52 52 59 64 66 66 71 69 65 63 66 65 61 67 70 70 65 57 47
13 14 17 13 12 15 30 44 42 50 58 63 61 60 61 61 59 61 65 67 72 77 79 71 71 66 67 65 66 62 57 63 63 63 64 66 69 69 68 66 68 68 66 70 69 70 66 58 48
18 22 18 16 12 25 26 39 49 51 57 63 61 61 62 63 60 58 60 63 66 71 74 76 77 75 71 70 74 66 60 68 72 70 68 67 69 70 68 69 67 65 69 71 70 68 70 59 47
21 17 16 16 13 24 29 37 51 53 57 60 60 59 61 63 62 57 57 58 62 65 67 71 75 74 71 68 72 70 71 72 63 62 60 62 68 68 67 67 66 64 67 69 71 70 67 53 56
15 15 17 15 13 22 29 36 55 53 55 61 61 60 62 61 56 55 55 54 58 63 68 68 75 76 75 82 80 77 78 72 67 67 65 62 65 67 67 68 67 70 67 71 72 67 59 54 57
16 16 16 14 13 18 28 34 50 51 52 54 58 60 60 58 58 55 54 54 53 61 68 72 71 74 72 76 73 78 72 68 63 62 67 66 64 65 67 70 66 70 73 76 73 68 58 54 57
17 18 15 15 15 16 32 39 40 51 47 47 47 48 51 51 58 57 52 52 52 60 70 74 71 73 70 73 72 74 70 67 66 64 63 70 67 69 67 67 66 71 76 75 75 68 60 54 62
23 14 13 13 16 20 29 46 44 42 54 50 49 48 46 44 45 50 50 48 50 59 67 72 75 74 70 71 76 76 73 75 72 64 60 70 69 68 67 65 67 70 74 72 74 68 56 56 61
17 13 15 16 17 18 20 34 34 38 45 44 43 44 44 43 42 43 47 45 48 55 66 72 76 76 72 69 73 75 75 66 62 62 62 66 68 67 64 66 68 68 68 70 72 68 58 52 57
13 13 13 18 22 27 18 25 22 50 35 34 33 36 37 39 40 41 40 43 48 52 64 69 76 78 76 71 74 74 76 71 68 63 67 69 68 67 67 72 72 71 71 70 66 64 60 57 56
15 17 24 21 27 23 18 30 19 26 32 27 30 30 32 32 35 38 40 41 43 52 61 68 75 80 82 82 79 77 74 71 65 63 67 68 68 68 72 73 75 74 75 75 62 59 56 55 58
18 17 29 24 30 21 21 29 23 19 24 26 22 26 26 30 31 33 35 38 41 44 57 64 72 75 85 87 83 81 75 74 70 65 63 63 65 64 68 71 72 73 77 77 66 55 57 59 60
15 17 13 16 23 23 24 20 16 16 20 28 27 23 26 28 29 30 32 34 38 42 50 63 68 68 78 85 84 83 80 80 78 68 64 64 60 65 68 65 70 74 77 77 71 59 60 61 54
12 12 14 21 21 22 20 21 20 18 17 28 31 29 26 29 27 28 30 31 34 38 45 58 63 64 66 75 79 81 77 78 76 68 66 65 62 66 66 67 71 72 75 76 73 60 56 57 57
15 14 14 16 17 17 18 15 13 17 19 21 28 29 28 29 27 25 27 29 31 36 43 54 63 64 64 68 74 76 80 81 82 72 66 61 63 67 67 67 72 69 73 76 73 62 57 58 56
10 12 16 17 18 18 14 14 11 13 14 19 18 26 26 26 26 24 23 26 31 37 41 54 60 66 64 68 73 75 74 80 86 76 68 63 66 69 72 72 74 68 70 76 74 66 64 58 58

GFSSGP_925_rhum_021.txt.gz
RH
99 97 96 86 95 83 78 68 58 53 55 53 46 54 59 77 72 73 95 95 90 94 88 87 78 89 92 87 90 87 77 77 65 80 94 96 95 95 91 90 85 91 93 96 97 95 94 76 81
98 97 88 75 80 75 70 61 57 54 58 52 56 60 66 88 77 85 90 86 83 81 83 83 78 86 87 86 83 84 93 85 76 94 94 95 96 89 96 96 90 81 87 86 95 82 79 77 78
96 83 85 86 66 61 66 59 57 56 51 51 62 59 66 82 75 79 82 82 80 82 79 84 84 83 91 83 81 89 92 93 94 95 94 94 92 94 96 89 78 76 76 81 96 86 82 73 72
83 80 82 88 58 54 51 54 52 57 54 55 57 75 67 69 74 77 82 82 77 82 78 85 91 94 90 81 86 95 94 94 95 94 88 86 95 96 89 84 84 78 82 82 88 78 77 76 74
76 70 73 66 48 52 51 50 51 52 56 57 56 77 84 73 79 80 81 76 76 77 82 86 90 87 84 82 87 94 93 93 90 81 82 86 95 95 87 92 84 84 94 80 74 70 71 70 71
70 66 58 51 44 49 47 48 48 51 56 61 63 68 79 81 79 79 78 76 76 78 78 85 84 85 82 90 94 93 91 83 76 81 83 85 88 89 96 97 90 95 94 70 66 66 68 67 66
69 57 53 48 44 47 50 46 51 53 57 57 52 70 85 74 76 79 78 79 77 81 80 82 79 91 94 92 94 93 81 73 72 82 77 73 77 79 77 77 87 91 77 67 66 66 65 67 66
61 60 54 43 44 47 50 46 48 50 56 45 47 68 88 73 77 80 79 80 80 81 80 85 78 79 84 86 96 94 73 74 72 74 70 61 62 69 75 76 73 68 67 68 70 66 61 62 63
57 64 55 41 44 41 49 51 47 45 53 48 50 54 54 74 77 78 78 79 80 82 82 82 78 84 90 87 88 94 76 75 78 73 67 69 86 87 85 78 72 66 67 69 70 59 60 62 60
67 64 45 35 33 27 46 45 50 53 53 51 54 56 67 74 75 72 72 71 73 76 78 79 82 82 86 82 89 89 85 79 83 83 88 87 73 73 76 79 68 59 62 67 64 60 61 64 58
68 58 44 32 28 26 36 46 44 51 56 46 56 62 64 69 70 67 66 67 69 72 77 80 86 90 86 82 86 86 83 84 85 91 85 84 85 76 83 76 73 61 64 73 73 71 58 58 62
66 52 44 32 27 30 39 41 46 48 45 38 46 53 59 63 62 62 63 66 69 74 77 79 85 91 89 86 84 82 82 83 82 84 63 68 82 76 73 80 60 59 59 69 62 68 63 62 73
61 40 33 29 27 22 27 43 41 48 40 38 49 53 57 57 59 61 61 65 70 75 77 79 87 93 93 94 84 84 87 83 82 86 75 73 82 76 72 67 64 64 64 68 65 70 61 70 65
31 28 17 19 20 16 27 32 41 39 44 50 54 56 54 55 57 63 66 70 75 76 78 80 87 92 93 92 94 89 88 86 86 80 78 54 70 69 73 71 65 68 65 70 69 70 68 60 67
17 16 13 13 14 15 21 44 45 40 46 54 56 57 55 55 58 62 65 68 75 77 80 84 89 91 94 94 93 89 84 83 80 78 52 56 64 70 72 72 62 68 70 66 68 69 69 61 60
16 16 15 12 12 16 22 18 34 42 47 54 55 57 58 58 58 63 65 68 72 76 82 85 84 88 93 93 94 86 84 82 78 77 68 60 68 70 72 73 74 71 72 66 65 66 70 70 59
15 17 18 15 12 23 30 19 23 41 45 52 55 55 56 57 59 62 64 68 69 78 82 84 86 86 91 95 90 87 88 81 78 77 72 58 64 68 69 71 79 70 83 70 71 72 76 68 61
17 17 16 17 13 16 26 27 31 42 44 49 52 52 55 55 56 59 63 65 69 76 84 85 85 88 94 91 94 86 83 79 77 76 76 60 65 67 68 72 68 74 86 79 83 76 76 64 67
13 14 15 13 12 18 22 26 31 44 45 47 51 52 52 52 48 55 60 63 68 74 80 85 87 86 89 88 82 79 78 76 80 79 63 67 65 65 70 81 67 72 80 77 76 81 77 66 66
14 14 15 14 12 13 14 18 18 38 47 45 50 50 50 49 50 54 58 61 64 70 76 84 85 84 86 82 80 76 75 74 80 80 74 68 64 62 64 71 80 74 84 78 84 77 71 63 68
15 13 13 15 13 12 15 16 20 38 40 43 45 46 46 46 50 53 55 58 61 66 76 80 83 82 84 80 84 87 88 89 87 82 81 73 62 60 61 64 78 78 81 83 86 78 72 62 72
14 12 12 15 16 18 17 20 25 24 43 46 46 47 47 45 48 48 53 56 58 64 72 76 80 83 87 88 81 84 75 72 73 74 77 80 65 62 62 65 71 75 86 86 90 78 76 68 58
13 12 13 14 16 16 15 20 17 34 39 45 44 43 45 42 45 48 50 53 56 60 66 72 78 80 81 88 82 84 77 71 70 73 81 82 73 65 65 66 70 76 81 83 95 77 76 75 62
14 16 16 18 16 22 17 18 17 19 25 31 38 41 43 43 41 45 48 52 54 57 61 66 77 81 84 86 88 85 80 75 74 79 77 76 76 78 69 68 70 71 80 78 87 74 76 74 64
15 15 20 20 21 21 14 18 18 15 21 16 29 37 40 42 42 43 48 50 55 57 60 64 73 81 83 84 86 86 83 81 77 76 75 71 74 75 77 68 71 78 69 72 81 71 73 73 69
17 14 14 21 16 15 19 20 16 13 12 18 19 26 32 38 39 41 43 49 54 56 60 61 66 76 81 82 83 84 83 79 79 76 69 72 71 72 77 69 73 66 69 72 76 76 77 76 73
17 19 11 14 19 16 13 13 14 14 13 16 18 20 26 30 35 38 41 43 50 54 58 61 63 72 77 80 82 84 85 83 77 74 76 73 73 71 80 65 69 68 69 73 76 79 76 72 67
14 12 18 14 18 18 14 18 13 18 15 16 18 18 20 21 27 32 37 39 44 49 53 59 63 67 73 76 79 82 83 84 79 80 78 74 73 66 76 73 81 74 68 74 77 83 80 72 71
16 16 14 13 14 12 12 10 15 17 20 17 16 16 17 20 22 25 31 36 41 44 47 54 61 66 73 77 78 78 82 83 83 81 81 77 74 70 76 70 69 80 75 75 78 80 85 76 77
13 14 15 16 24 15 12 10 11 11 14 17 14 15 17 22 25 25 25 30 35 41 44 48 54 60 67 72 77 79 80 82 84 82 81 79 77 74 69 73 70 81 86 79 79 80 85 82 84

GFSSGP_925_rhum_024.txt.gz
RH
93 88 83 85 98 70 60 53 41 41 42 37 42 42 46 71 54 79 79 89 89 95 92 88 83 91 89 81 91 95 95 90 93 79 81 86 81 79 84 89 91 95 95 96 96 95 94 93 87
72 77 72 58 78 66 57 44 41 39 41 38 43 44 52 78 58 72 77 81 79 78 76 76 80 82 93 91 90 94 94 93 81 84 92 82 84 81 90 80 81 87 83 95 95 93 94 92 85
74 71 61 65 47 50 51 44 41 40 39 39 46 44 48 63 60 65 69 74 68 72 68 78 87 87 90 93 91 92 93 93 90 88 88 83 92 91 86 76 79 78 81 95 93 90 86 83 71
74 75 61 69 40 38 39 40 39 42 41 39 41 55 54 58 60 66 70 66 64 65 63 82 92 94 91 91 93 94 94 94 94 89 91 89 97 97 78 82 81 89 92 84 76 71 81 71 71
61 55 63 52 35 36 36 38 40 39 40 42 41 56 71 61 61 67 65 60 57 59 65 76 86 85 88 91 92 94 94 94 92 92 96 97 96 90 83 78 93 92 71 69 70 73 73 71 72
58 45 43 30 30 35 34 34 36 38 40 44 45 57 74 64 61 63 59 56 55 57 60 72 85 86 80 85 94 95 95 94 94 95 97 96 94 85 92 96 95 91 74 70 68 69 69 66 68
54 38 33 29 30 33 35 32 34 37 41 42 39 54 62 57 58 57 56 56 54 57 54 65 72 81 93 90 95 95 94 94 93 84 91 77 75 78 91 83 92 90 80 68 67 67 66 67 65
41 40 32 27 29 36 34 34 32 35 42 34 36 55 68 56 57 57 56 57 56 57 54 58 62 68 73 79 95 94 93 93 87 80 71 63 64 72 73 72 67 73 68 69 63 63 63 64 60
41 40 30 27 28 30 32 36 34 33 39 36 36 36 45 55 56 55 57 58 63 57 53 54 56 62 67 69 80 89 90 94 71 66 63 68 66 70 70 71 66 68 68 66 57 57 56 52 48
44 35 26 22 21 22 26 32 38 37 38 37 41 37 49 54 54 53 54 55 60 54 53 50 52 58 63 59 71 71 65 61 62 61 71 66 71 74 73 70 65 65 65 65 57 57 56 55 40
35 34 24 22 20 19 22 32 32 33 37 34 44 47 48 51 52 50 50 50 50 53 52 53 55 61 61 56 64 62 60 59 66 74 71 70 73 71 64 64 65 61 63 68 64 66 57 50 51
38 30 28 22 20 19 19 24 33 31 28 28 35 41 45 47 46 46 46 47 48 53 54 55 60 64 62 60 61 58 55 57 58 61 75 75 70 70 71 62 65 67 58 62 59 64 60 64 65
38 26 23 21 20 18 15 22 26 31 29 27 35 40 43 43 44 44 44 45 46 51 54 56 62 70 67 68 58 54 57 57 55 63 67 67 67 74 72 71 66 67 60 58 66 66 61 72 64
23 26 22 14 13 14 14 19 24 26 29 33 38 39 39 40 41 43 44 45 47 50 54 57 64 71 72 71 69 64 64 59 61 58 57 76 71 73 67 68 64 63 64 66 71 70 68 64 54
21 22 13 12 12 13 11 16 25 23 31 36 37 38 37 38 40 42 44 46 49 51 53 57 65 71 76 76 78 73 62 61 58 56 64 72 77 80 77 66 65 61 74 72 70 70 64 59 49
15 14 16 13 12 11 13 18 20 24 32 36 37 38 38 38 38 41 44 45 48 52 57 62 62 65 74 74 76 69 61 60 55 52 56 72 79 85 82 74 71 64 78 69 66 67 62 53 49
12 16 16 15 12 13 16 17 15 23 28 33 37 38 38 39 38 41 44 46 47 56 61 67 67 65 70 76 74 72 65 64 55 53 54 69 78 81 83 77 70 76 70 72 69 71 64 53 48
16 15 14 15 13 12 14 17 14 20 25 28 35 36 38 38 39 41 45 46 49 55 63 69 70 70 74 74 78 68 60 61 58 55 55 64 75 78 83 70 71 71 68 72 80 72 65 55 42
11 13 14 12 12 14 15 14 14 19 26 26 33 36 37 37 36 40 45 46 50 54 62 69 70 73 77 74 70 63 57 57 57 56 63 72 77 80 85 71 72 71 73 75 76 75 70 54 50
12 12 13 12 11 12 13 14 13 16 25 26 30 34 35 34 35 38 43 45 46 52 59 68 72 75 82 72 65 57 54 53 55 56 63 73 76 81 81 72 76 72 71 79 79 73 57 54 48
12 13 12 13 12 11 13 15 14 11 15 22 24 28 30 34 35 37 40 42 44 49 59 65 73 74 80 67 68 66 60 59 58 58 64 70 77 78 84 71 71 78 74 75 81 78 69 50 51
13 10 10 11 13 18 12 19 15 13 15 18 22 25 28 31 32 34 37 40 42 46 55 63 71 76 79 77 63 64 59 57 55 59 56 60 75 74 75 78 78 79 68 70 79 75 70 72 49
11 6 8 10 11 13 14 16 15 13 15 14 18 20 26 27 30 33 35 37 38 44 51 59 69 76 74 80 65 67 64 57 56 55 55 66 69 77 72 76 79 79 76 76 81 82 84 68 54
10 9 8 10 10 16 15 16 16 14 15 14 16 20 25 27 28 31 33 34 37 41 49 55 67 78 79 79 82 72 67 62 55 58 56 60 63 66 74 74 75 76 77 79 82 86 84 76 65
12 12 15 14 13 15 12 14 15 11 10 12 12 14 22 26 28 29 34 35 36 40 46 53 62 75 77 76 77 79 75 73 66 64 64 57 56 55 59 77 80 77 83 77 82 88 80 84 73
14 11 11 16 11 10 11 15 13 10 10 10 10 10 16 24 26 27 31 35 38 40 46 50 58 71 76 75 78 81 80 72 70 67 59 62 54 53 57 70 77 79 76 82 83 83 82 77 79
14 14 8 8 10 10 8 10 9 9 10 10 10 10 11 20 25 27 27 32 37 41 46 51 57 70 71 70 77 80 80 77 62 63 68 62 60 54 61 68 78 76 77 79 82 78 82 76 81
10 10 11 9 15 15 9 10 11 11 12 11 11 10 10 15 22 23 26 27 32 38 43 50 56 64 68 67 72 73 74 79 75 70 70 66 60 65 58 71 73 74 76 79 84 74 78 83 75
11 12 10 9 9 11 11 8 7 9 11 11 10 10 10 13 16 19 22 25 28 32 39 45 52 57 61 64 68 69 69 70 76 74 74 75 68 67 72 71 73 71 74 78 83 78 67 84 81
9 11 11 12 16 11 10 7 6 7 7 10 9 10 9 10 12 14 15 19 25 29 34 38 44 50 56 58 67 70 70 70 69 78 75 76 75 72 74 73 75 72 70 75 81 82 67 77 81

GFSSGP_925_rhum_027.txt.gz
RH
88 87 86 80 92 70 80 63 36 36 40 31 33 46 53 50 60 92 74 83 66 70 85 91 93 93 88 90 87 88 94 93 86 94 79 76 80 92 85 83 95 95 95 94 95 93 92 93 80
66 75 82 77 89 95 52 44 41 38 33 33 33 35 45 63 50 68 83 84 69 78 73 68 85 82 88 93 86 93 96 93 94 91 80 75 81 79 91 94 96 94 95 93 91 91 90 89 89
64 66 79 62 79 58 43 54 41 32 31 36 38 38 51 60 56 60 76 84 80 80 65 70 71 78 91 93 89 95 96 94 95 84 89 94 93 80 94 89 93 94 94 93 90 88 86 85 86
65 63 56 63 68 27 36 38 32 32 30 30 33 50 46 49 54 62 66 68 62 64 55 77 80 94 93 94 95 96 95 94 95 79 83 94 97 93 94 90 91 90 91 90 88 88 85 84 84
65 49 57 66 50 26 28 30 35 36 33 32 33 47 61 54 53 62 65 62 58 65 59 77 89 90 94 95 95 95 95 94 86 78 91 95 96 94 94 95 93 89 88 88 88 89 84 81 87
63 46 82 55 26 24 25 25 38 40 30 34 44 54 65 55 54 56 58 56 61 62 55 74 86 82 83 95 96 94 96 95 89 92 96 96 96 96 95 94 92 86 79 76 76 76 67 63 64
50 57 76 60 27 26 24 22 31 31 30 32 34 56 61 52 54 55 54 56 55 53 50 62 71 84 94 94 95 95 96 96 96 96 94 90 88 86 73 86 88 83 76 72 71 70 64 56 53
34 33 37 54 50 29 22 19 21 31 32 27 32 55 66 53 50 52 54 53 58 50 47 54 62 69 75 78 93 94 96 96 96 94 80 67 67 64 67 65 64 73 69 64 62 60 58 52 44
28 42 37 23 28 23 20 21 22 24 30 29 29 38 44 48 46 52 53 54 54 47 44 48 53 60 65 66 81 91 94 94 84 62 53 66 76 70 77 72 58 65 65 56 55 52 56 52 45
33 50 72 18 15 18 20 22 23 27 29 32 30 34 44 42 46 52 52 54 53 50 40 41 46 51 54 53 73 70 66 60 64 60 58 82 64 67 74 65 55 61 62 56 52 51 64 66 64
25 39 63 17 16 15 18 22 20 21 28 30 35 40 39 40 44 47 50 51 51 48 38 40 44 50 49 48 58 54 51 49 52 59 63 66 59 62 64 64 63 64 65 62 67 64 59 49 52
25 25 53 16 16 15 17 19 23 21 20 22 30 35 37 38 36 36 39 43 42 39 37 38 45 50 48 48 50 46 44 45 46 52 68 66 64 56 57 60 56 58 60 71 72 60 56 63 57
22 20 19 19 17 15 13 17 25 21 18 20 29 34 37 36 36 35 35 36 37 38 38 39 46 54 53 53 47 43 43 44 42 51 59 56 61 64 59 61 61 58 59 72 58 60 63 61 64
17 19 19 17 15 13 14 14 18 21 19 22 30 34 34 34 34 35 35 36 37 39 39 40 49 59 60 57 54 48 46 45 45 44 49 67 60 61 64 61 60 59 65 63 59 61 69 54 55
16 20 19 19 13 13 12 14 19 20 22 25 30 32 32 32 33 34 35 36 37 40 42 44 50 58 64 63 63 57 50 46 45 45 52 64 69 70 69 61 55 62 65 68 65 62 65 52 41
18 19 22 15 12 12 12 16 14 18 24 27 28 29 32 32 31 34 35 36 38 40 44 47 48 54 63 62 65 59 50 48 45 44 48 62 70 73 73 60 58 69 63 57 61 58 45 44 41
14 18 18 16 12 12 13 16 17 16 22 26 28 29 28 31 30 34 34 36 37 41 45 49 51 52 60 64 63 62 54 52 46 44 44 64 69 73 74 63 63 68 71 55 54 56 52 42 38
16 14 13 14 12 12 13 15 16 18 19 22 26 27 29 28 30 32 34 35 37 42 47 53 54 54 61 64 67 59 53 54 48 45 43 64 69 74 77 62 66 69 71 63 62 68 52 46 36
12 12 12 11 10 12 14 16 13 14 17 18 24 27 28 28 26 29 34 35 38 42 49 56 59 61 64 65 63 56 53 52 48 46 47 54 64 72 75 67 69 67 65 68 71 62 60 42 44
13 13 12 10 9 11 13 15 11 12 14 17 20 25 27 27 27 28 32 34 37 40 47 57 62 67 70 65 61 54 51 46 48 48 51 60 68 71 72 74 65 64 70 72 72 69 62 42 42
11 11 11 11 10 10 12 15 14 11 12 16 17 21 23 26 28 30 31 33 35 40 48 58 66 69 72 64 63 59 52 49 49 49 51 60 67 67 69 74 69 64 71 70 75 69 61 56 41
9 7 9 10 11 15 12 19 15 12 12 16 17 20 22 23 26 29 30 33 34 38 46 56 68 71 74 74 59 58 53 48 45 48 48 53 65 65 66 72 68 72 63 69 77 68 62 52 43
8 6 8 9 11 12 13 16 14 12 13 12 13 16 19 20 23 27 30 31 32 35 42 52 67 73 70 76 65 60 57 46 46 45 48 52 61 66 64 67 73 72 76 62 73 71 70 59 53
7 8 7 8 8 14 13 14 15 12 12 11 11 12 15 17 21 24 27 29 30 32 38 47 64 75 76 77 74 66 58 49 46 48 48 51 53 64 67 63 72 73 71 67 76 77 74 73 55
9 9 12 11 10 13 10 12 13 10 9 10 10 11 12 14 19 24 27 28 30 32 36 44 61 75 79 77 77 74 66 62 58 55 50 46 47 47 56 66 72 71 76 69 69 80 72 77 68
11 9 10 15 11 8 8 13 11 9 8 8 9 9 12 14 17 21 25 28 30 32 38 43 55 72 78 77 77 79 73 64 61 57 48 50 44 44 46 68 69 71 73 76 71 72 75 70 75
11 11 7 7 6 7 6 7 7 7 8 9 9 9 10 13 16 21 22 26 30 31 38 44 51 66 75 75 77 79 81 71 59 57 59 56 53 44 48 59 71 71 72 72 74 69 74 68 75
9 8 10 8 13 12 8 9 9 10 10 9 10 10 9 10 15 18 21 24 28 31 35 42 49 62 70 70 75 78 79 80 69 64 64 60 55 55 51 56 63 72 72 74 76 66 69 75 70
10 11 9 7 7 10 12 8 6 8 9 10 9 9 9 9 13 17 20 21 26 29 32 38 46 54 65 68 69 70 74 74 78 70 68 67 65 62 58 63 66 70 73 74 76 71 61 74 76
8 10 10 12 15 8 8 8 6 5 6 8 9 9 8 8 11 16 17 19 21 26 30 34 39 45 57 61 66 69 68 70 72 76 69 69 69 68 68 67 71 72 72 73 77 79 62 66 76

GFSSGP_925_rhum_030.txt.gz
RH
93 88 79 81 99 97 79 81 67 49 40 37 37 50 47 49 56 75 87 81 72 90 88 93 90 93 95 85 84 90 91 81 77 82 88 89 93 88 93 94 94 94 95 96 93 92 93 93 91
74 76 85 90 96 92 90 54 57 43 33 30 34 37 49 69 51 67 77 80 75 79 72 78 86 91 89 84 87 92 94 83 89 93 90 91 91 93 94 97 95 95 94 92 90 91 90 90 90
59 70 89 85 91 89 73 68 48 34 32 35 41 40 51 66 52 58 67 79 72 72 60 75 84 85 85 86 90 91 90 85 95 88 90 94 96 93 92 94 95 94 93 90 89 88 87 86 86
73 75 78 87 77 59 42 38 38 33 33 34 40 57 54 52 56 56 65 57 60 67 58 65 69 88 84 87 92 90 91 89 95 89 95 96 95 94 92 92 91 92 91 90 90 88 87 87 88
64 55 79 76 61 45 30 31 38 41 32 40 45 61 72 56 61 60 59 57 62 60 74 66 67 85 86 90 90 92 95 93 93 92 96 95 94 95 95 92 89 90 88 88 89 74 68 70 70
74 75 78 64 46 29 26 27 29 38 34 41 52 59 64 59 64 64 65 58 59 63 65 83 83 91 87 93 91 89 95 96 96 96 96 98 97 95 94 90 87 85 80 72 64 57 55 56 50
80 94 85 70 55 28 29 27 29 34 28 42 43 63 62 58 61 61 60 59 48 54 61 82 89 94 91 90 94 94 96 97 97 95 92 84 79 84 85 79 78 75 68 64 59 57 57 53 52
45 91 86 76 47 52 23 25 27 30 33 31 41 63 73 59 60 57 62 54 57 46 62 71 76 81 84 90 96 95 96 95 90 79 80 84 77 67 64 64 65 66 60 56 61 65 62 66 60
35 61 66 61 39 43 21 28 28 24 28 30 36 46 51 52 52 55 59 58 53 47 53 60 64 73 75 78 89 94 94 79 58 55 70 79 81 73 77 75 56 62 58 58 62 56 52 50 60
35 91 70 43 40 34 23 20 23 26 28 34 43 44 47 51 51 51 58 56 51 46 46 50 56 63 68 63 73 81 78 75 69 70 58 65 80 66 71 62 55 61 58 56 57 63 64 53 54
27 60 37 34 31 18 22 19 19 22 29 37 48 46 44 50 49 52 54 54 52 43 40 46 51 56 55 56 61 69 64 61 59 70 60 84 78 67 64 62 62 57 58 61 57 59 70 60 53
25 48 53 36 29 15 28 40 20 26 26 29 38 38 42 47 45 49 53 51 46 43 38 42 50 52 49 55 51 55 52 50 56 53 63 77 60 72 66 60 67 66 70 70 65 68 58 60 58
20 36 32 50 39 13 25 47 37 32 20 26 33 36 37 41 43 43 50 46 45 46 37 42 49 47 49 54 48 46 44 43 48 54 52 71 58 65 61 65 62 72 66 48 69 62 59 63 46
18 17 25 30 29 14 14 27 31 31 19 27 33 36 34 35 36 39 44 44 42 44 36 42 53 48 55 51 50 47 42 40 44 46 52 59 71 64 61 61 68 63 63 65 69 60 44 61 56
15 19 17 18 16 14 12 14 19 29 20 25 32 35 33 32 30 33 38 36 38 34 36 46 53 53 56 54 59 52 46 46 41 49 53 57 63 65 61 65 66 67 68 64 65 62 59 51 49
18 16 23 18 16 13 12 16 21 27 21 26 29 32 33 32 30 32 31 32 35 35 36 47 47 58 56 61 61 58 53 46 45 43 50 60 67 72 65 62 64 55 67 56 57 58 61 56 52
19 22 20 20 15 14 12 15 13 22 20 27 27 30 32 33 31 32 31 33 35 37 42 46 43 56 61 64 65 60 56 52 46 44 47 52 68 72 69 63 61 69 60 67 56 54 57 42 38
23 20 17 20 16 13 13 14 15 17 39 26 28 27 30 31 31 32 32 33 35 40 46 47 46 54 60 64 64 63 60 53 51 45 44 52 65 71 72 69 66 69 63 69 61 61 48 41 36
17 16 14 12 12 14 13 15 17 24 54 41 27 29 28 29 28 31 32 32 36 42 50 50 53 55 66 67 70 66 60 56 53 48 46 54 63 71 75 74 65 70 66 68 67 62 56 41 42
17 16 13 10 9 10 13 13 14 25 46 43 29 42 28 26 27 31 32 32 34 42 52 54 56 57 65 67 69 63 58 54 53 48 48 57 59 69 73 73 70 69 68 72 72 71 62 43 40
17 17 14 12 9 9 13 14 14 17 16 18 20 28 24 26 27 30 33 32 34 43 51 60 60 65 68 67 67 61 57 52 50 49 50 52 61 66 73 73 66 68 69 65 74 72 66 56 40
16 13 12 12 12 13 10 17 18 14 14 15 16 21 22 25 26 29 32 33 35 40 50 61 65 68 72 66 65 64 60 56 52 50 51 55 58 69 71 71 72 68 70 72 66 69 62 56 49
10 7 10 10 11 11 11 14 13 14 15 14 16 19 30 23 25 29 30 33 33 38 49 61 69 70 76 69 69 63 62 56 50 50 50 50 58 62 67 71 70 70 67 71 68 70 60 67 51
6 6 7 7 9 15 12 13 15 14 16 12 14 14 19 21 23 29 29 32 33 37 46 56 71 73 74 78 66 70 63 56 52 48 50 58 66 64 66 68 71 72 69 73 68 68 71 61 62
7 8 12 13 13 14 11 13 14 11 13 12 11 12 14 19 21 28 33 32 34 36 44 52 71 78 77 79 75 72 68 56 56 50 49 55 56 67 69 65 72 70 72 72 72 73 75 65 67
8 8 12 20 14 11 9 13 12 9 8 10 10 10 12 15 18 24 31 32 34 35 41 49 67 76 79 76 81 72 79 68 55 62 53 50 52 53 58 59 67 73 74 68 75 74 72 79 68
10 11 7 9 8 9 7 8 7 8 8 9 8 10 11 13 14 22 27 31 34 34 39 46 60 74 79 79 80 82 75 74 64 59 57 56 48 48 47 54 62 68 70 75 67 75 76 71 74
8 8 11 9 17 15 9 11 10 11 11 10 10 9 10 12 14 20 25 29 32 33 37 42 53 70 77 79 78 82 81 77 69 57 60 57 56 47 50 58 63 72 75 77 75 78 69 73 75
9 10 10 8 9 12 13 8 7 12 11 11 10 10 10 12 15 18 23 26 31 32 35 40 46 61 72 76 79 78 81 80 74 70 62 64 54 61 49 67 72 73 74 76 78 78 72 72 72
8 10 11 13 18 10 11 9 6 8 9 9 9 10 10 11 16 16 20 24 28 31 33 38 44 51 66 73 76 78 78 80 81 73 68 67 69 55 64 57 64 70 74 76 79 82 73 72 78

GFSSGP_925_rhum_033.txt.gz
RH
86 72 82 82 100 97 88 72 71 61 55 47 45 55 69 66 58 81 99 75 82 78 85 87 87 83 88 78 76 90 79 91 80 81 84 86 84 86 92 96 96 96 96 94 95 95 93 88 78
78 86 86 95 98 95 90 70 84 61 45 44 44 51 61 72 70 91 91 79 79 74 84 88 85 79 83 81 77 82 94 90 82 82 84 82 87 89 94 96 95 95 95 94 93 92 92 91 72
76 78 93 96 92 93 81 67 65 45 36 43 51 49 59 75 78 77 84 77 73 76 87 86 79 80 86 84 81 84 89 93 83 87 90 85 87 94 96 96 94 95 93 91 89 89 89 88 65
71 80 89 97 87 68 60 54 51 38 44 49 54 67 55 57 58 75 79 72 62 71 76 79 79 88 89 82 86 84 78 90 81 88 95 96 94 95 95 93 94 92 90 87 75 75 81 74 58
73 83 92 88 83 80 57 47 48 49 48 54 55 70 69 65 67 74 66 57 61 75 68 64 78 84 81 82 91 91 89 88 84 86 82 92 94 96 94 93 93 86 84 80 70 79 85 69 55
86 72 86 82 68 65 54 38 41 44 49 61 69 70 75 65 64 67 56 61 67 76 65 66 78 84 78 93 93 92 80 87 85 87 89 86 86 86 89 90 90 84 70 72 78 68 70 70 63
76 86 90 82 88 58 38 33 41 51 52 59 54 79 75 61 58 55 52 62 69 75 69 77 87 91 82 84 94 94 76 85 80 84 91 87 83 74 79 78 80 78 78 73 64 62 58 62 60
76 80 87 77 72 67 70 31 38 44 53 44 52 82 88 67 61 60 59 61 65 73 74 83 90 83 83 86 94 83 62 86 82 69 77 85 91 76 63 66 68 64 67 60 51 54 52 50 58
50 91 93 78 56 46 48 40 34 35 47 48 45 61 64 64 66 62 61 60 61 75 76 85 84 79 81 85 91 72 58 77 61 66 68 71 77 82 76 65 61 54 56 56 51 52 55 57 48
66 87 81 46 41 46 49 48 33 47 54 62 65 59 60 61 62 63 64 60 59 71 73 76 75 78 80 72 66 51 46 50 59 68 55 64 68 65 79 62 60 53 52 53 55 58 59 61 56
49 60 46 40 34 48 44 44 53 48 64 65 72 64 58 57 60 62 61 60 57 61 64 68 70 76 72 70 50 45 51 64 78 66 52 60 72 72 70 58 59 58 52 60 63 61 63 53 57
42 38 42 38 32 32 34 36 48 36 52 52 56 54 54 56 56 59 57 58 52 54 56 60 62 67 65 60 42 53 58 64 70 68 59 63 62 70 68 70 62 65 65 61 65 69 69 61 53
31 42 33 26 32 34 30 35 39 42 45 46 49 52 54 53 53 55 56 56 51 48 51 55 56 63 59 57 42 49 56 59 61 60 58 58 60 66 68 72 66 67 65 55 65 66 58 54 44
25 32 34 32 29 33 35 32 44 42 43 46 50 56 53 51 53 54 54 52 51 46 48 53 52 59 54 55 46 50 54 52 57 58 49 62 63 68 67 69 68 66 62 63 61 62 47 42 47
25 26 32 34 29 28 34 44 51 41 42 45 50 55 52 49 51 54 53 50 49 47 46 53 48 52 57 55 59 55 50 45 52 54 58 63 62 66 62 63 66 65 69 66 57 51 59 55 54
28 26 31 34 32 28 27 43 29 32 42 47 44 48 50 49 47 53 51 49 48 47 52 52 49 47 51 49 54 52 50 44 48 50 53 54 63 65 64 67 61 65 63 65 65 58 57 56 49
29 37 28 23 18 19 19 30 30 28 36 43 44 41 42 45 44 48 50 48 47 47 54 56 55 49 51 48 54 56 50 50 50 55 51 50 56 72 67 69 65 63 60 60 59 62 54 48 49
36 34 27 24 18 21 21 21 36 30 33 60 64 44 40 39 40 41 47 45 43 44 51 54 54 50 50 52 56 58 50 53 55 57 49 47 48 60 68 72 69 60 62 59 64 58 46 38 41
26 28 25 19 16 20 21 20 32 52 68 63 73 71 41 38 35 35 36 38 41 45 49 50 56 57 55 58 62 61 56 59 57 51 56 49 51 56 66 70 70 65 66 67 60 51 54 40 44
21 26 26 18 14 18 19 18 36 52 56 64 66 58 48 37 36 37 35 37 43 50 50 47 56 60 59 61 60 67 66 58 58 49 55 50 56 63 67 67 70 65 70 69 62 66 62 44 42
20 23 23 22 15 12 16 20 46 40 40 45 49 50 47 35 36 38 36 36 44 54 52 51 48 59 58 61 60 62 67 62 59 53 51 60 56 64 69 70 68 72 70 71 67 69 60 47 46
23 18 19 19 20 22 12 27 26 35 40 46 47 57 47 40 33 37 36 37 43 55 54 52 52 56 63 62 72 68 65 69 62 54 49 62 59 60 66 70 68 73 69 67 62 65 62 59 43
21 16 16 18 20 20 17 23 20 27 39 47 51 48 55 55 36 37 37 36 39 53 60 59 57 60 69 68 69 65 70 64 59 55 50 51 54 56 64 72 70 68 72 73 68 69 69 63 58
16 18 15 17 19 22 16 20 22 21 23 32 35 44 48 31 30 40 35 35 37 51 61 66 63 69 67 66 68 68 71 63 60 55 51 53 55 55 60 73 74 67 68 69 69 68 69 63 65
16 18 22 20 21 21 14 19 18 16 18 17 27 39 36 38 31 42 37 37 38 51 58 70 73 78 76 68 67 68 67 64 58 55 53 52 60 58 60 64 74 71 68 69 74 68 71 62 66
15 14 20 25 21 17 12 16 15 13 13 14 16 29 33 44 41 35 35 36 37 43 56 70 75 77 82 79 70 64 74 68 60 57 52 50 57 60 59 62 69 73 70 67 73 72 70 73 59
13 14 10 14 16 19 14 11 10 8 10 10 15 15 28 33 30 32 34 35 36 42 52 63 78 77 81 83 81 71 69 79 67 55 60 60 57 56 58 61 64 70 71 66 71 77 72 74 74
12 10 14 12 22 22 16 13 12 10 9 10 14 14 18 29 30 32 33 34 37 38 48 56 77 78 80 81 83 79 69 70 79 66 54 63 54 54 57 57 64 64 69 68 67 78 81 74 77
12 14 11 13 18 25 28 18 9 9 10 13 11 16 13 19 28 33 34 34 37 37 46 54 66 79 83 83 80 83 81 76 82 78 62 52 61 58 49 55 60 64 69 71 70 67 72 79 76
11 11 12 15 19 17 17 16 14 13 9 10 10 14 16 16 26 32 34 34 37 37 42 50 58 75 80 82 82 83 86 84 78 83 74 52 58 56 59 55 62 68 66 66 73 74 74 77 75

GFSSGP_925_rhum_036.txt.gz
RH
84 72 89 88 100 98 90 77 79 71 70 54 52 57 63 74 70 82 93 87 78 91 87 87 87 89 81 71 90 86 92 94 95 90 92 95 95 95 95 96 96 96 96 96 96 94 94 95 91
67 87 91 96 99 94 84 84 84 63 59 54 54 56 64 88 80 92 94 82 75 91 92 88 86 82 75 80 82 92 95 94 90 89 92 95 89 88 96 96 95 94 96 96 96 95 94 93 88
81 84 93 96 94 87 90 86 72 51 50 50 59 55 63 89 82 84 91 83 82 90 86 87 84 79 80 76 79 88 96 95 94 88 88 95 94 85 96 95 96 96 94 93 93 92 89 89 70
84 86 91 96 87 72 64 63 56 55 55 55 57 70 65 74 76 86 91 78 80 84 82 89 91 88 86 73 91 90 94 92 91 95 96 96 96 96 95 95 95 94 95 93 92 91 80 86 64
76 87 92 91 83 72 63 53 58 62 65 57 56 76 80 77 66 88 84 74 84 84 81 91 88 86 80 89 93 90 93 90 86 92 93 95 96 95 96 95 95 95 94 91 93 94 84 75 68
94 83 88 88 76 64 60 61 78 69 64 66 67 76 87 84 77 79 76 78 81 78 73 90 87 89 76 94 93 92 92 84 90 95 90 89 91 90 91 94 93 90 77 72 67 66 59 58 65
81 82 84 81 82 71 63 62 67 67 59 61 53 87 81 79 72 69 68 74 79 73 70 84 91 95 88 91 94 94 86 82 82 83 87 86 86 87 78 81 88 82 81 79 55 52 55 57 62
70 78 75 74 77 87 71 68 55 58 65 52 53 87 88 69 65 60 68 82 82 72 72 79 92 90 82 89 94 89 83 76 69 69 74 74 78 78 67 67 72 60 57 60 61 55 53 52 60
78 81 82 70 77 84 76 59 53 55 59 51 53 65 59 61 56 60 66 84 86 77 77 82 90 80 80 85 88 86 63 68 66 69 65 71 70 69 72 65 60 55 50 53 61 66 65 55 54
74 89 71 56 55 57 85 68 66 59 59 66 72 62 58 57 54 62 69 86 92 93 89 81 82 73 75 78 72 54 54 61 64 62 67 62 73 77 72 64 62 58 51 52 58 62 66 65 61
71 84 62 54 48 38 47 54 52 66 77 72 82 70 60 58 62 66 67 80 87 83 88 81 71 68 64 58 45 45 46 53 61 58 55 67 66 71 64 61 61 59 56 60 59 63 62 59 63
61 58 53 46 36 34 37 47 56 51 64 59 66 63 62 65 66 65 67 71 80 85 80 71 70 71 67 42 37 40 52 63 68 60 53 65 65 66 68 60 56 62 59 63 67 63 61 60 50
51 48 43 37 34 34 32 41 40 47 56 56 58 61 64 63 62 64 63 64 71 75 73 66 69 69 63 42 33 47 59 65 66 73 66 61 62 68 71 69 65 63 63 63 66 58 60 57 51
37 40 36 32 34 33 36 35 42 61 58 61 59 62 61 62 61 63 60 60 64 65 68 62 64 62 59 45 36 49 56 60 63 64 64 62 63 67 69 67 66 63 61 59 64 60 48 49 51
28 39 33 35 32 33 31 37 54 59 59 63 64 62 60 58 59 61 58 59 57 59 62 63 62 61 57 54 48 47 54 59 61 62 61 62 64 66 64 63 63 64 65 67 64 59 52 49 44
33 35 46 34 29 30 34 45 52 56 60 65 62 59 58 57 57 57 57 55 57 53 56 59 63 63 54 54 55 50 54 52 54 58 57 63 62 66 67 66 65 64 63 64 60 63 52 48 49
31 42 41 34 32 30 36 38 54 56 62 65 63 60 58 57 55 53 56 54 54 52 52 56 60 62 57 57 60 58 52 57 57 56 56 59 66 65 62 68 65 68 67 62 61 62 55 53 52
37 43 37 36 25 32 36 34 58 55 58 66 65 60 58 58 56 53 53 52 52 51 50 55 57 62 57 58 53 52 49 52 57 59 56 58 55 66 62 66 64 66 64 62 62 59 42 42 46
28 33 36 28 22 21 26 40 59 53 55 62 67 64 59 56 50 52 53 51 50 52 52 56 56 56 59 55 53 54 50 50 54 59 59 57 50 54 71 66 70 66 64 61 61 54 50 50 45
24 28 33 28 24 23 26 41 49 52 54 56 59 59 56 52 50 48 52 52 50 53 57 60 58 53 55 52 49 52 49 48 52 60 57 56 54 49 62 67 68 69 67 64 65 60 56 43 46
24 27 27 32 25 20 20 45 41 45 50 51 52 49 50 45 44 48 48 50 49 57 61 62 60 54 55 51 52 54 50 49 53 61 56 57 57 54 57 63 67 68 70 67 65 63 61 44 47
28 20 21 23 27 34 18 44 61 55 56 51 46 49 52 46 40 42 43 48 46 57 58 63 62 58 58 55 58 59 62 71 61 60 58 54 59 61 61 64 65 67 72 70 66 65 59 55 48
24 19 20 21 27 27 25 26 64 56 62 56 49 48 44 48 40 41 38 42 45 54 59 64 64 63 62 61 58 57 67 70 68 64 59 56 60 63 63 64 65 67 74 71 68 65 62 64 46
20 22 23 23 27 37 26 24 26 64 55 47 40 43 39 45 39 36 37 37 45 51 58 63 70 68 65 64 64 59 64 65 66 66 63 56 62 63 64 64 65 69 70 71 72 67 67 67 64
24 31 39 38 34 34 22 24 20 39 38 40 40 39 41 42 38 37 40 38 42 53 57 62 68 80 72 69 69 63 62 62 59 65 61 56 62 65 64 63 68 76 72 69 71 71 70 65 67
28 27 41 48 37 28 19 23 19 15 26 26 35 35 41 42 40 37 38 37 39 54 58 59 66 71 76 70 72 70 67 62 61 64 62 57 54 57 56 59 63 72 74 71 69 72 68 71 64
26 30 21 21 20 22 18 13 10 11 11 22 37 40 42 42 42 36 37 37 39 52 59 61 64 65 77 75 76 80 74 70 66 64 60 58 54 55 54 55 59 63 73 72 71 69 71 70 72
21 17 22 23 24 26 22 18 13 11 10 13 32 38 41 43 36 33 36 38 37 47 56 63 66 64 74 76 74 76 78 71 68 69 64 59 59 57 56 58 60 62 68 74 72 71 72 74 73
23 18 16 18 23 23 26 16 12 12 14 10 27 29 37 39 35 34 35 36 37 41 52 65 70 68 75 80 79 76 76 75 82 73 67 61 60 63 61 60 59 62 65 70 73 70 71 77 76
18 18 15 16 21 25 25 16 12 10 10 10 12 34 35 34 34 34 34 35 37 39 48 61 72 73 74 80 82 83 81 78 77 82 77 68 60 56 68 61 61 62 64 68 72 71 71 78 85

GFSSGP_925_rhum_042.txt.gz
RH
95 95 91 98 97 98 94 85 73 85 89 66 48 54 68 83 75 86 95 74 72 77 79 90 85 92 94 93 92 95 86 89 86 90 92 96 90 86 93 96 96 96 96 95 92 93 94 92 95
91 94 97 98 100 96 85 80 78 74 67 72 55 62 72 95 79 96 98 80 72 79 82 87 82 92 94 93 90 95 94 91 90 91 93 94 83 94 96 96 96 89 88 92 93 92 93 93 84
90 91 99 100 90 86 88 85 84 72 65 62 68 65 78 89 84 91 94 80 76 85 79 81 81 88 97 92 93 93 96 95 92 94 96 91 90 96 97 97 97 97 94 92 95 92 92 75 78
91 95 96 100 88 73 72 76 72 82 76 71 73 90 80 76 79 95 96 80 79 89 85 88 84 95 95 95 94 95 94 93 95 93 95 92 91 95 96 95 96 95 95 96 94 92 89 74 75
90 92 97 94 82 66 66 81 79 75 80 72 73 91 93 86 87 100 96 83 79 90 87 88 89 88 93 94 95 95 94 93 86 84 93 96 94 95 95 95 94 94 94 94 94 89 73 70 72
97 90 94 86 77 65 68 72 80 70 77 72 80 85 92 96 96 100 96 91 85 88 83 84 91 88 89 94 94 94 86 84 92 92 85 93 96 96 96 95 94 93 92 93 82 68 71 70 71
95 88 81 81 83 76 72 70 73 81 78 70 66 87 97 94 94 100 98 93 90 85 80 85 86 96 95 96 95 94 82 82 91 86 92 95 96 97 95 95 92 89 88 84 70 64 65 67 70
80 77 80 84 83 85 69 71 72 71 73 55 61 92 95 88 94 98 97 96 90 84 83 90 86 94 88 94 94 95 91 88 84 93 95 96 97 80 82 82 88 88 85 71 59 61 64 66 68
60 86 88 72 72 70 74 71 65 63 60 56 60 72 74 89 90 95 100 99 91 86 86 94 88 91 90 91 93 95 95 95 94 91 93 86 84 78 77 77 89 87 75 70 64 61 61 65 66
86 88 73 53 60 64 61 70 65 68 64 74 80 76 84 84 84 94 93 92 100 99 93 94 87 82 89 90 94 94 94 92 82 75 67 73 70 70 72 68 70 70 70 67 65 65 65 64 65
86 91 60 47 57 49 59 66 65 66 73 74 85 88 81 78 78 91 89 85 96 97 100 93 88 76 79 82 90 90 84 78 75 74 71 69 68 67 66 64 61 64 63 65 66 65 62 66 69
87 74 63 54 48 56 62 58 65 64 65 63 71 75 76 74 76 88 90 88 99 100 99 93 87 73 72 69 70 76 74 70 66 67 66 62 62 64 61 62 61 64 65 68 63 62 60 58 57
80 71 60 57 56 54 50 56 59 64 64 60 66 70 72 68 71 85 88 96 96 97 99 90 84 70 66 60 62 67 63 59 58 59 62 67 69 67 62 57 60 66 64 63 65 59 56 51 51
48 52 55 51 52 48 51 53 55 61 61 65 69 69 64 65 70 82 90 95 97 89 85 82 80 64 59 54 52 53 55 62 66 61 62 66 67 62 64 66 64 65 63 62 65 54 52 50 48
42 45 39 36 44 49 39 62 63 70 61 67 68 62 59 65 69 77 87 91 92 81 74 76 73 61 54 47 45 48 51 62 66 64 67 65 65 65 63 63 66 65 67 63 64 57 50 48 51
36 36 50 38 36 36 42 59 66 73 69 69 64 59 59 65 68 73 82 85 87 79 77 70 69 57 52 46 43 47 54 60 62 62 64 67 66 68 63 63 65 63 65 59 58 63 58 54 52
33 57 50 44 37 38 42 54 78 75 74 72 65 60 58 65 68 70 74 81 83 78 71 68 69 50 51 47 41 44 52 59 58 60 62 63 64 70 67 63 64 66 61 57 59 59 68 58 57
45 41 44 45 34 42 47 50 82 75 78 76 70 62 60 63 67 67 70 73 78 77 66 62 62 50 51 57 51 51 51 55 57 58 57 59 62 68 72 63 63 64 62 57 60 58 49 57 58
34 40 43 37 30 45 48 50 85 78 76 80 78 72 65 64 60 65 68 68 72 73 70 67 60 54 58 67 68 67 65 62 61 56 57 58 61 70 74 69 61 60 63 62 60 58 49 55 52
30 29 34 32 28 37 41 48 77 80 78 75 77 75 69 65 62 63 66 65 67 68 67 68 62 57 58 59 62 64 62 64 58 58 60 62 61 68 75 70 66 60 65 67 66 59 50 52 52
28 35 30 33 27 28 36 45 76 76 72 70 69 67 67 66 64 63 65 63 62 68 65 65 62 58 56 56 64 69 68 70 64 61 59 61 61 63 68 75 68 66 64 68 68 61 51 50 55
35 25 27 26 31 40 33 53 70 82 80 75 73 71 67 64 60 59 62 63 62 63 64 60 59 58 54 55 60 64 67 71 62 57 57 59 61 61 61 64 73 70 66 69 68 66 62 46 52
23 23 27 27 34 32 30 40 55 78 91 81 74 69 65 62 59 59 58 59 60 60 64 63 59 60 57 55 56 58 66 65 61 56 55 58 58 58 61 61 65 70 70 69 72 70 64 63 48
23 26 31 32 37 43 34 33 41 87 75 73 66 66 63 61 58 56 55 56 57 59 62 65 63 60 60 59 60 60 63 65 61 58 55 53 56 56 56 61 65 70 73 70 73 74 68 66 61
30 31 55 53 53 45 34 34 36 34 60 59 62 58 59 59 57 56 56 56 57 57 58 66 67 66 62 62 61 63 61 60 60 55 54 52 54 60 57 58 64 67 69 72 72 74 71 66 65
32 35 55 62 57 39 36 45 35 22 40 50 51 50 51 54 54 55 53 53 55 57 57 64 67 67 66 64 64 61 63 60 58 52 53 50 48 54 57 59 59 64 67 70 73 73 72 74 68
36 41 33 44 38 48 30 30 20 22 24 44 46 47 50 50 51 52 50 50 52 55 58 63 65 66 68 64 64 68 65 64 59 52 54 51 48 53 57 60 59 59 63 69 73 77 73 73 74
31 30 43 49 55 48 40 28 34 25 29 32 41 44 46 46 47 46 48 46 50 51 56 62 63 66 66 65 67 67 68 62 58 54 56 57 52 54 58 61 62 58 61 65 70 74 78 76 72
31 38 38 35 45 47 39 33 25 25 22 28 29 44 41 43 42 41 42 43 47 49 53 61 64 67 68 71 71 72 71 69 62 59 57 57 57 56 56 61 61 59 59 62 68 70 72 77 75
58 35 41 42 46 42 41 33 15 18 20 20 19 40 42 40 38 37 36 42 43 48 52 59 63 68 69 70 72 71 73 71 69 68 61 60 59 57 55 61 63 61 60 61 66 67 67 71 76

GFSSGP_925_rhum_045.txt.gz
RH
93 94 91 91 90 90 76 69 68 75 65 62 44 50 53 60 60 71 81 80 77 79 88 93 86 94 93 91 94 90 83 78 83 94 95 90 92 81 82 81 84 84 84 94 90 93 92 93 97
94 92 96 93 96 90 71 65 68 68 56 55 49 59 66 74 71 86 80 77 74 75 85 83 89 83 92 90 87 89 88 86 87 90 92 91 96 80 80 91 96 96 95 96 93 93 94 95 86
88 90 98 98 93 83 72 73 79 65 61 52 60 58 70 81 75 75 76 76 75 80 87 88 86 86 96 82 89 92 89 86 92 90 92 94 87 92 96 95 97 95 93 96 93 93 78 84 75
88 90 97 100 82 67 72 80 75 69 75 68 62 73 69 71 75 78 83 77 75 83 79 90 84 93 92 91 93 94 94 90 91 94 95 91 90 86 95 94 95 96 96 94 91 92 87 86 76
84 84 96 82 71 63 60 67 75 72 72 80 66 83 93 82 83 84 82 76 74 76 80 85 85 93 95 93 96 93 94 90 96 94 96 90 88 95 95 94 92 94 94 93 91 87 75 72 76
86 80 88 77 63 62 63 63 65 68 75 72 75 79 88 87 89 84 79 76 75 75 78 88 88 86 85 95 94 93 91 94 94 94 84 85 87 96 94 93 93 92 93 88 77 70 69 70 71
85 82 70 63 71 70 64 60 67 71 69 67 62 76 92 87 87 85 78 78 77 76 79 87 81 90 88 94 92 95 94 90 90 82 81 91 96 95 95 93 90 89 89 84 65 65 67 68 68
78 62 65 64 64 69 60 65 84 74 68 54 54 80 94 82 88 85 80 78 78 76 83 87 82 89 91 92 95 94 93 94 91 94 95 96 96 95 95 83 87 87 81 69 68 64 67 64 64
58 76 76 58 59 58 61 64 68 56 62 53 55 59 64 87 90 85 82 80 82 80 83 81 87 89 97 94 93 91 96 95 96 94 89 89 88 87 81 72 88 88 83 67 63 62 65 68 65
72 76 62 46 42 51 62 59 63 64 59 70 67 57 75 84 85 83 80 76 74 77 82 80 82 84 90 88 90 94 85 81 86 90 86 89 74 81 78 73 80 75 67 64 67 65 63 66 71
65 68 54 42 43 47 59 60 58 60 64 63 71 72 76 75 76 76 73 72 69 76 83 88 86 93 87 89 88 88 86 88 90 70 69 67 71 74 77 76 79 76 70 76 78 77 74 78 69
74 63 58 54 42 46 54 51 54 55 51 50 58 64 71 66 68 70 67 70 74 85 86 90 87 94 90 90 87 88 86 87 86 80 71 69 76 67 68 77 79 72 71 69 64 77 62 58 62
68 64 55 52 47 46 44 48 49 53 53 51 58 65 64 60 62 64 63 68 76 81 86 88 90 94 94 96 90 88 89 84 82 74 66 62 63 64 64 66 68 71 65 62 66 66 61 59 61
40 54 52 46 44 43 47 42 45 53 55 61 64 65 60 57 60 64 66 67 74 76 78 86 91 91 92 89 80 84 86 83 80 75 64 68 71 65 65 65 67 71 66 62 66 53 57 66 71
39 49 39 38 34 41 37 44 51 55 56 64 64 63 58 55 58 62 66 68 70 74 78 85 89 89 86 83 64 73 78 77 80 81 64 68 68 66 65 66 68 68 64 62 58 54 54 63 65
26 30 37 34 36 34 34 43 45 56 58 64 62 61 60 55 55 60 62 65 70 72 80 86 79 83 84 84 56 66 72 76 79 75 68 68 68 68 64 64 76 67 67 60 65 67 62 50 59
30 19 28 28 31 34 35 39 51 56 56 62 62 59 56 55 54 59 63 65 69 77 82 82 82 80 79 64 66 48 55 63 72 65 66 64 68 68 66 65 64 63 70 76 76 55 69 62 61
25 23 34 28 32 33 38 36 58 60 56 59 60 55 54 53 55 58 62 66 72 77 83 80 80 83 80 72 65 68 59 64 62 64 61 60 64 67 69 66 62 64 64 71 71 53 55 70 67
28 32 24 33 28 34 35 35 53 63 62 61 59 55 52 51 50 56 61 65 71 77 80 83 81 81 82 80 75 70 63 67 67 59 60 58 60 65 70 65 63 64 70 62 64 66 66 68 65
21 30 30 28 28 33 34 35 34 60 62 61 58 54 52 49 50 55 60 62 66 74 78 84 81 80 68 75 74 68 69 71 72 67 58 58 59 64 71 70 66 65 68 60 63 63 62 64 61
22 21 28 28 24 25 29 33 32 54 56 58 57 52 49 48 49 54 58 61 63 68 77 80 80 78 70 73 78 66 69 68 71 73 70 61 60 61 68 73 68 66 66 64 63 66 54 56 68
18 15 21 27 29 32 28 43 34 34 60 61 58 58 54 50 48 49 55 59 60 64 72 76 78 79 73 67 74 69 63 63 66 70 67 55 58 60 66 69 68 68 71 67 71 65 60 52 56
18 15 16 16 27 31 29 36 32 39 48 55 56 54 53 52 50 50 51 56 57 62 67 72 77 73 72 76 69 71 67 64 70 70 64 57 58 60 65 64 62 65 72 68 70 69 66 60 55
17 18 19 17 16 26 32 33 31 33 44 45 47 51 52 52 51 50 51 54 57 58 65 68 74 73 69 74 75 69 70 68 71 70 68 67 71 66 62 65 64 67 75 72 76 71 69 73 65
22 25 31 31 30 21 17 32 30 24 32 33 41 49 50 50 51 50 52 52 57 58 61 68 72 74 73 74 73 73 66 66 68 69 67 63 64 70 65 57 62 71 66 69 71 75 78 74 79
26 25 28 35 28 16 16 32 28 21 20 28 31 36 46 49 47 48 49 52 57 60 63 66 72 72 72 72 71 67 63 69 67 68 63 66 62 62 71 53 57 59 63 68 70 83 84 87 83
24 31 20 23 31 27 15 17 20 20 20 19 28 35 44 47 47 47 47 50 54 57 61 65 69 74 73 71 73 73 70 69 68 65 66 68 66 66 73 52 58 59 61 66 71 82 86 82 83
31 19 33 29 36 33 22 20 18 22 22 21 22 30 37 41 44 44 45 47 51 54 57 62 66 72 73 72 73 75 74 70 69 73 70 65 63 53 66 58 58 63 62 66 72 83 87 94 87
26 30 27 26 29 28 26 21 16 17 23 21 22 22 28 36 41 42 44 46 49 50 54 58 62 68 71 73 72 72 75 73 73 76 74 69 54 52 52 55 57 63 64 66 77 79 84 92 91
34 51 28 33 41 32 29 21 16 16 16 17 16 19 20 31 36 39 40 44 45 49 51 55 58 60 67 68 71 72 72 74 75 75 76 75 58 52 54 59 56 61 65 73 79 83 78 86 86

GFSSGP_925_rhum_048.txt.gz
RH
89 70 59 64 83 64 58 52 49 56 50 46 35 38 40 40 49 75 58 63 72 67 68 78 90 78 87 90 88 92 78 78 79 81 89 93 96 95 71 78 88 86 93 93 93 90 93 95 89
78 69 75 69 89 81 54 50 57 48 44 38 41 44 42 59 52 58 57 62 61 54 56 68 88 87 93 88 85 84 94 93 88 91 90 93 93 81 95 82 91 96 94 93 93 95 95 95 94
73 84 83 93 86 73 63 54 55 48 43 38 50 43 48 68 55 55 56 58 52 52 51 79 84 91 88 94 91 94 96 93 95 93 92 96 96 97 97 96 94 93 92 93 92 91 89 82 85
74 72 94 93 71 53 56 56 69 57 56 51 44 56 57 60 54 51 57 52 50 53 50 83 92 86 85 95 91 88 96 88 89 94 95 88 95 92 94 95 96 96 93 92 93 89 88 88 82
59 77 94 81 64 52 53 60 56 62 63 60 58 64 88 63 59 57 54 48 50 49 55 76 90 91 95 96 94 96 88 84 92 93 86 94 95 87 92 91 94 94 92 91 88 88 79 73 71
81 82 72 63 62 47 46 49 59 61 76 68 54 70 82 69 64 57 52 47 47 47 53 71 88 89 87 96 91 94 92 93 84 81 86 87 82 91 94 93 92 93 92 86 74 69 72 72 70
74 58 54 44 55 61 51 47 56 66 61 60 53 61 73 68 61 56 50 46 46 46 52 63 74 88 97 94 88 95 96 94 81 84 84 79 86 92 92 91 90 89 86 80 64 68 70 68 70
56 46 51 44 52 59 47 54 74 68 56 48 46 60 82 68 64 57 49 47 47 47 53 56 62 69 75 78 96 95 94 85 85 85 78 86 93 80 76 69 87 84 82 84 72 68 66 68 65
51 56 54 42 43 50 47 57 58 60 56 45 43 43 49 69 65 58 50 47 48 48 53 52 57 65 76 77 85 92 91 94 89 78 77 75 61 63 68 68 88 71 62 61 64 66 67 63 65
52 44 38 33 32 37 45 56 49 51 48 52 49 47 63 67 67 57 48 46 46 48 50 50 63 65 77 64 79 79 75 66 63 67 74 64 65 65 61 69 67 61 63 60 61 63 62 72 63
42 44 37 32 31 35 47 51 43 42 49 46 51 66 66 64 62 52 46 44 44 47 47 51 58 64 72 66 70 66 60 64 69 77 72 72 64 58 58 66 64 64 67 57 62 65 57 58 54
42 38 39 35 34 37 41 37 41 45 40 37 42 53 58 53 50 47 43 42 43 47 49 53 61 66 64 67 58 58 58 60 62 68 80 75 63 63 61 59 62 62 59 62 60 52 61 60 63
36 37 41 42 38 34 41 41 44 42 38 37 40 49 51 46 47 45 43 42 44 48 52 53 63 70 70 70 59 58 60 59 59 68 74 65 62 65 64 68 62 61 61 59 58 57 58 63 59
20 26 42 41 34 35 41 34 35 35 38 42 45 49 45 44 44 45 44 44 47 51 53 55 63 72 74 71 72 70 64 63 61 60 63 78 68 74 65 67 71 66 62 61 57 57 50 46 51
20 31 26 33 36 34 30 33 35 39 41 46 47 48 44 42 43 45 44 45 49 51 55 57 62 68 75 74 78 69 65 60 62 62 76 79 80 73 74 69 73 68 70 70 63 58 52 45 45
18 16 25 22 27 28 30 36 34 39 41 48 47 46 46 42 42 45 45 45 48 46 53 59 55 59 70 70 73 62 61 61 60 63 68 77 80 74 75 72 68 71 63 58 50 44 52 48 41
12 13 17 22 25 27 30 29 38 37 38 45 48 46 45 44 42 45 46 45 46 49 55 60 58 56 62 68 66 64 66 64 61 61 63 78 78 80 72 64 69 74 65 62 50 48 50 46 39
12 13 13 18 25 28 30 28 37 38 37 42 46 46 46 43 41 44 45 46 46 50 55 60 60 59 64 65 68 60 62 65 63 63 62 75 73 78 77 67 75 68 65 66 56 56 52 46 40
14 13 14 17 19 30 30 27 30 39 37 43 44 46 45 43 40 42 45 45 47 51 57 60 62 64 68 63 57 57 57 58 61 60 69 77 73 78 81 73 70 72 62 60 67 58 62 48 48
12 19 21 17 19 26 28 28 23 36 38 40 42 42 42 40 39 41 44 45 47 52 56 62 64 68 73 58 54 52 53 52 55 60 71 73 74 78 74 72 68 71 69 66 66 66 48 46 47
15 13 14 20 22 20 27 30 26 26 35 36 37 37 38 37 38 41 43 45 46 51 58 62 67 69 73 54 57 64 61 61 64 64 63 68 74 75 76 72 70 71 69 62 67 67 57 44 50
14 10 11 13 20 27 22 33 28 24 34 37 38 37 36 36 36 38 42 45 45 49 57 61 69 71 72 66 54 60 55 51 48 54 53 62 74 73 74 73 74 74 73 70 68 66 54 56 44
14 10 10 11 13 20 25 31 25 22 28 35 34 35 34 36 35 36 40 44 44 47 54 61 69 73 66 70 56 58 54 43 46 50 56 62 75 73 70 74 73 73 68 73 77 77 69 50 45
15 15 14 13 11 13 19 26 26 22 24 23 28 30 33 34 34 34 38 42 45 46 50 57 67 76 73 69 70 62 51 44 46 53 53 54 56 66 74 76 79 72 71 76 73 76 77 64 56
18 19 22 22 17 13 10 17 24 18 17 21 22 26 29 32 35 36 36 40 45 47 49 52 63 75 74 71 72 66 62 58 56 61 56 49 48 50 60 78 81 74 79 75 76 80 80 76 65
21 18 22 28 16 12 9 13 14 15 16 16 20 20 25 29 31 35 38 39 43 47 50 52 58 71 73 69 73 76 70 59 58 63 53 52 47 46 52 73 72 75 75 77 79 79 74 71 73
21 22 15 18 16 14 9 9 7 10 15 16 17 19 21 27 30 34 36 40 42 46 50 55 58 68 68 66 72 76 73 68 56 56 61 55 55 49 55 60 70 68 72 75 76 68 75 73 76
25 15 22 20 31 29 17 15 10 12 17 16 16 17 20 25 30 31 34 38 40 44 47 52 57 64 64 62 65 67 66 69 65 62 63 62 55 63 54 64 64 65 70 73 78 66 72 75 71
20 25 23 19 20 25 25 16 10 10 11 16 16 15 16 22 28 30 32 35 39 41 44 50 54 59 64 62 61 61 62 63 68 65 66 70 68 65 70 64 63 65 70 72 77 73 64 75 75
14 27 21 24 29 22 22 18 9 11 10 10 13 14 14 17 23 26 28 32 35 39 41 45 49 53 58 58 64 64 62 62 61 69 66 70 73 71 71 68 68 64 64 69 75 75 63 72 73